Regional Weather Roundup
Issued by NWS

Home | Current Version | Previous Version | Text Only | Print | Product List | Glossary Off
Versions: 1 2 3 4 5 6 7 8 9 10 11 12 13 14 15 16 17 18 19 20 21 22 23 24 25 26 27 28 29 30 31 32 33 34 35 36 37 38 39 40 41 42 43 44 45 46 47 48 49 50

000
ASUS45 KSLC 302110
RWRUT

UTAH REGIONAL WEATHER ROUNDUP
NATIONAL WEATHER SERVICE SALT LAKE CITY UT
300 PM MDT THU JUL 30 2015

UTZ001>011-023>025-302200-

NORTHERN UTAH

CITY           SKY/WX    TMP DP  RH WIND       PRES   REMARKS
BRIGHAM CITY     N/A     89  19   7 NW3       30.28F
HILL AFB       NOT AVBL
LOGAN          SUNNY     88  19   8 NE3       30.30F
OGDEN            N/A     89  27  10 NW8       30.28F
PROVO AIRPORT  NOT AVBL
SALT LAKE CITY   N/A     92  26   9 NW12      30.25F
VERNAL         SUNNY     87  15   7 VRB3      30.30F
WENDOVER         N/A     90  27  10 E12       30.27F
HEBER CITY       N/A     88  21   8 S5        30.34F
WEST JORDAN    SUNNY     90  28  11 N12       30.29F

$$

UTZ012>022-026-027-302200-

SOUTHERN/CENTRAL UTAH

CITY           SKY/WX    TMP DP  RH WIND       PRES   REMARKS
BLANDING         N/A     87  45  22 SE10      30.38F
BRYCE CANYON     N/A     83  31  15 VRB3      30.46F
CEDAR CITY       N/A     89  26  10 S3        30.28F
DELTA            N/A     92  23   8 CALM      30.25F
HANKSVILLE       N/A     97  27   8 SE6       30.21F HX  90
MILFORD          N/A     96  33  11 NE20G31   30.24F HX  91
MOAB/CYNLANDS  SUNNY     94  23   8 CALM      30.20F
PRICE            N/A     94  13   5 N18G30    30.31F
ST GEORGE        N/A    100  45  15 W8G16     30.07F HX  96
KANAB            N/A     91  43  18 E10       30.28F

$$

REGIONAL REPORTS     COLORADO/ARIZONA

CITY           SKY/WX    TMP DP  RH WIND       PRES   REMARKS
CRAIG, CO      SUNNY     87  20   8 SW6G23    30.36F
GRAND JUNCTION SUNNY     92  36  14 W12       30.23F
RIFLE          SUNNY     91  19   7 CALM      30.28F
MONTROSE       SUNNY     90  28  11 NW14      30.31F
CORTEZ         SUNNY     88  45  22 S9        30.31F
PAGE, AZ         N/A     91  51  25 N6        30.20F
GRAND CANYON   CLOUDY    78  45  30 NE8       30.40F
KINGMAN          N/A     96  48  19 NW8       30.11F HX  92
FLAGSTAFF      PTSUNNY   73  53  49 NE10G20   30.42F

$$

REGIONAL REPORTS    NEVADA/IDAHO/WYOMING

CITY           SKY/WX    TMP DP  RH WIND       PRES   REMARKS
LAS VEGAS, NV  PTSUNNY  103  47  15 NE7       29.98F HX  99
ELY              N/A     89  20   8 S8        30.35F
ELKO             N/A     92  20   7 VRB7      30.29F
POCATELLO, ID  SUNNY     88  26  10 NW8       30.31F
BURLEY           N/A     89  26  10 VRB6      30.25F
EVANSTON, WY   MOSUNNY   80  16   9 VRB6      30.47F
ROCK SPRINGS   SUNNY     80  21  11 VRB6      30.42F
KEMMERER       SUNNY     79  10   7 NW13      30.48S

$$



USA.gov is the U.S. government's official web portal to all federal, state and local government web resources and services.